sat.trackr.live / text

‹ back to catalog

STARLINK-30812

NORAD 58168 · 2023-166U

PAYLOAD ACTIVE UNKNOWN

§ Identity

Operator
Country
US
Launch date
2023-10-29
Launch site
AFWTR
Launch vehicle
Mass (kg)
RCS (m²)

Purposes: comms

External: N2YO · Heavens-Above · Gunter

§ Orbital elements

Epoch: 2026-09-20T21:22:49.084896Z

Period
93.85 min
Inclination
53.1625°
Eccentricity
0.0001328
Mean motion
15.34395378 rev/d
Perigee alt
461.8 km
Apogee alt
463.6 km
Semi-major
6,840.9 km
B*
9.6320e-5
RAAN
31.6391°
Arg perigee
125.2381°
Mean anomaly
234.8746°
Rev number
16,293

§ Raw data

STARLINK-308121 58168U 23166U   26263.89084589  .00002879  00000+0  96320-4 0  99952 58168  53.1625  31.6391 0001328 125.2381 234.8746 15.34395378162934

JSON: /api/v1/satellites/58168 · /tle

For live sub-satellite position, see the globe view (requires WebGL).

§ Visibility from observer

Set your observer location to see the next 7 days of passes ≥ 10°. The values pass through the URL so the page stays shareable.

No JS? Fill the form by hand. The geolocation button needs JavaScript.